FENGYUN 1C DEB, 31272

Orbit data source: Space-Track

FENGYUN 1C DEB, 31272 is space debris in SSO originally from a launch on Mon, 10 May 1999 UTC launched from the Taiyaun Space Center, China (TSC). Fengyun 1C debris stems from the Chinese weather satellite Fengyun-1C, which was intentionally destroyed by a Chinese anti-satellite missile in 2007. This event dramatically increased the amount of space debris, with thousands of trackable fragments posing hazards to satellites and human spaceflight. The Fengyun 1C debris cloud has become a focal point in discussions about space sustainability and the need for international regulations to prevent the creation of new debris.

Loading next visibility...
Identifier
31272, 1999-025BNE
Orbit
SSO
Country
Flag of CNCN / PRC
Related business
Manufacturer
Unknown
Mission
Spacecraft
Bus & Motor
Unknown
Mass
Unknown
Launch date (UTC)
1999-05-10 (27 years ago)
Launch vehicle
Unknown
Launch site
Taiyaun Space Center, China (TSC)
Object type
Payload
Rocket body
Debris
Shape & HBR
Unknown shape, 0.1 m
Radar Cross Section
Small (<0.1 m²)

Expand to show TLE details & history
Last TLE update: 1 day ago

TLE from 1 day ago
0 FENGYUN 1C DEB
1 31272U 99025BNE 26106.10976552  .00000597  00000-0  26792-3 0  9990
2 31272  99.0791 346.8973 0106670 116.6399 244.5751 14.23248438987581
Epoch: 2026-04-16T02:38Z
TLE epoch observation values (Epoch: 2026-04-16T02:38:03.740Z)
Latitude
-0.00006°
Longitude
103.1197°
Altitude
850.904 km
Speed
7.41 km/s
True Right ascension
23h 07m 35s
True Declination
0° 00' 00"
Sunlit
Object was in daylight at epoch
Visualization orbit readout
Latitude
Unknown
Longitude
Unknown
Altitude
Unknown
Speed
Unknown
Apparent Right ascension
Unknown
Apparent Declination
Unknown
Sunlit
N/A
Visualization observer readout
Local Sidereal Time
10:02:44
Azimuth
Unknown
Elevation
Unknown
Doppler factor
Unknown
Orbital elements
Apogee altitude
888.252 km
Perigee altitude
734.867 km
Semi-major axis
7,189.697 km
Eccentricity
0.01067
Inclination
99.0791°
RAAN
346.8973°
Arg. of periapsis
116.6399°
True anomaly
243.47749°
Mean anomaly
244.5751°
Eccentric anomaly
244.02566°
Mean motion
3.56022 °/min
Orbital period
101.12 mins
BSTAR
0.00026792
Loading maneuver chart data...
Computing Atmospheric mass density...
Loading historical data...
Loading historical data...
Loading historical data...
Loading historical data...
Loading historical data...
Loading historical data...
Loading historical data...

Documentation

Showing up to 5 results
|